| time (UTC) | temp C | wind direction | speed KPH | gust KPH | rain 1hr cm | rain 24hr cm | rain mn cm | humidity % | barometer mb |
| 20260906083515 | 16 | 325 | 9.7 | 25.7 | 0.00 | 0.00 | 0.00 | 75 | 1020.5 |
| 20260906083029 | 16 | 304 | 12.9 | 30.6 | 0.00 | 0.00 | 0.00 | 75 | 1020.4 |
| 20260906082514 | 16 | 273 | 17.7 | 30.6 | 0.00 | 0.00 | 0.00 | 75 | 1020.4 |
| 20260906082017 | 16 | 290 | 14.5 | 35.4 | 0.00 | 0.00 | 0.00 | 76 | 1020.3 |
| 20260906081538 | 16 | 283 | 14.5 | 35.4 | 0.00 | 0.00 | 0.00 | 76 | 1020.3 |
| 20260906081005 | 16 | 311 | 12.9 | 32.2 | 0.00 | 0.00 | 0.00 | 77 | 1020.2 |
| 20260906080508 | 16 | 284 | 14.5 | 32.2 | 0.00 | 0.00 | 0.00 | 76 | 1020.2 |
| 20260906080013 | 16 | 237 | 12.9 | 25.7 | 0.00 | 0.00 | 0.00 | 77 | 1020.2 |
| 20260906075512 | 15 | 322 | 14.5 | 24.1 | 0.00 | 0.00 | 0.00 | 78 | 1020.2 |
| 20260906075016 | 15 | 315 | 9.7 | 27.4 | 0.00 | 0.00 | 0.00 | 79 | 1020.1 |
| 20260906074523 | 15 | 300 | 16.1 | 27.4 | 0.00 | 0.00 | 0.00 | 78 | 1020.0 |
| 20260906074016 | 15 | 261 | 14.5 | 25.7 | 0.00 | 0.00 | 0.00 | 78 | 1019.9 |
| 20260906073514 | 15 | 240 | 12.9 | 29.0 | 0.00 | 0.00 | 0.00 | 79 | 1019.9 |
| 20260906073026 | 15 | 267 | 16.1 | 33.8 | 0.00 | 0.00 | 0.00 | 78 | 1019.8 |
| 20260906072514 | 15 | 277 | 14.5 | 33.8 | 0.00 | 0.00 | 0.00 | 79 | 1019.7 |
| 20260906072017 | 15 | 271 | 16.1 | 29.0 | 0.00 | 0.00 | 0.00 | 78 | 1019.8 |
| 20260906071532 | 15 | 268 | 9.7 | 27.4 | 0.00 | 0.00 | 0.00 | 79 | 1019.8 |
| 20260906071020 | 15 | 280 | 12.9 | 27.4 | 0.00 | 0.00 | 0.00 | 80 | 1019.6 |
| 20260906070507 | 15 | 321 | 12.9 | 25.7 | 0.00 | 0.00 | 0.00 | 80 | 1019.7 |
| 20260906070035 | 15 | 275 | 14.5 | 25.7 | 0.00 | 0.00 | 0.00 | 80 | 1019.5 |
| 20260906065510 | 15 | 294 | 12.9 | 30.6 | 0.00 | 0.00 | 0.00 | 79 | 1019.4 |
| 20260906065014 | 15 | 269 | 16.1 | 30.6 | 0.00 | 0.00 | 0.00 | 80 | 1019.3 |
| 20260906064529 | 14 | 294 | 11.3 | 29.0 | 0.00 | 0.00 | 0.00 | 81 | 1019.3 |
| 20260906064015 | 14 | 309 | 14.5 | 29.0 | 0.00 | 0.00 | 0.00 | 80 | 1019.2 |
| 20260906063517 | 14 | 296 | 11.3 | 25.7 | 0.00 | 0.00 | 0.00 | 81 | 1019.2 |
| 20260906063027 | 14 | 258 | 16.1 | 25.7 | 0.00 | 0.00 | 0.00 | 81 | 1019.1 |
| 20260906062515 | 14 | 263 | 9.7 | 22.5 | 0.00 | 0.00 | 0.00 | 81 | 1019.0 |
| 20260906062014 | 14 | 284 | 11.3 | 27.4 | 0.00 | 0.00 | 0.00 | 81 | 1018.9 |
| 20260906061512 | 14 | 288 | 14.5 | 27.4 | 0.00 | 0.00 | 0.00 | 81 | 1018.9 |
| 20260906061010 | 14 | 273 | 11.3 | 37.0 | 0.00 | 0.00 | 0.00 | 82 | 1018.9 |
| 20260906060513 | 14 | 278 | 12.9 | 37.0 | 0.00 | 0.00 | 0.00 | 81 | 1018.8 |
| 20260906060019 | 14 | 284 | 14.5 | 32.2 | 0.00 | 0.00 | 0.00 | 81 | 1018.8 |
| 20260906055512 | 14 | 257 | 14.5 | 27.4 | 0.00 | 0.00 | 0.00 | 81 | 1018.7 |
| 20260906055018 | 14 | 279 | 9.7 | 27.4 | 0.00 | 0.00 | 0.00 | 82 | 1018.6 |
| 20260906054529 | 13 | 302 | 16.1 | 25.7 | 0.00 | 0.00 | 0.00 | 82 | 1018.6 |
| 20260906054014 | 13 | 281 | 14.5 | 24.1 | 0.00 | 0.00 | 0.00 | 82 | 1018.6 |
| 20260906053518 | 13 | 285 | 11.3 | 29.0 | 0.00 | 0.00 | 0.00 | 82 | 1018.5 |
| 20260906053032 | 13 | 266 | 14.5 | 30.6 | 0.00 | 0.00 | 0.00 | 82 | 1018.4 |
| 20260906052522 | 13 | 279 | 11.3 | 30.6 | 0.00 | 0.00 | 0.00 | 82 | 1018.3 |
| 20260906052019 | 13 | 288 | 14.5 | 27.4 | 0.00 | 0.00 | 0.00 | 82 | 1018.3 |
| 20260906051517 | 13 | 280 | 16.1 | 27.4 | 0.00 | 0.00 | 0.00 | 83 | 1018.3 |
| 20260906051012 | 13 | 261 | 12.9 | 29.0 | 0.00 | 0.00 | 0.00 | 83 | 1018.3 |
| 20260906050511 | 13 | 300 | 9.7 | 29.0 | 0.00 | 0.00 | 0.00 | 82 | 1018.2 |
| 20260906050023 | 13 | 253 | 14.5 | 27.4 | 0.00 | 0.00 | 0.00 | 82 | 1018.2 |
| 20260906045519 | 13 | 274 | 14.5 | 27.4 | 0.00 | 0.00 | 0.00 | 82 | 1018.2 |
| 20260906045019 | 13 | 251 | 9.7 | 27.4 | 0.00 | 0.00 | 0.00 | 82 | 1018.1 |
| 20260906044530 | 14 | 284 | 9.7 | 32.2 | 0.00 | 0.00 | 0.00 | 82 | 1018.0 |
| 20260906044019 | 14 | 257 | 12.9 | 32.2 | 0.00 | 0.00 | 0.00 | 82 | 1018.0 |
| 20260906043519 | 14 | 288 | 14.5 | 25.7 | 0.00 | 0.00 | 0.00 | 82 | 1017.9 |
| 20260906043011 | 14 | 249 | 9.7 | 25.7 | 0.00 | 0.00 | 0.00 | 82 | 1017.8 |
| 20260906042508 | 14 | 300 | 8.0 | 22.5 | 0.00 | 0.00 | 0.00 | 82 | 1017.7 |
| 20260906042008 | 14 | 291 | 11.3 | 25.7 | 0.00 | 0.00 | 0.00 | 82 | 1017.7 |
| 20260906041526 | 14 | 319 | 9.7 | 25.7 | 0.00 | 0.00 | 0.00 | 82 | 1017.6 |
| 20260906041014 | 14 | 302 | 8.0 | 27.4 | 0.00 | 0.00 | 0.00 | 82 | 1017.5 |
| 20260906040511 | 14 | 302 | 12.9 | 27.4 | 0.00 | 0.00 | 0.00 | 82 | 1017.3 |
| 20260906040034 | 13 | 292 | 8.0 | 20.9 | 0.00 | 0.00 | 0.00 | 82 | 1017.2 |
| 20260906035515 | 13 | 284 | 8.0 | 29.0 | 0.00 | 0.00 | 0.00 | 82 | 1017.0 |
| 20260906035013 | 13 | 302 | 6.4 | 29.0 | 0.00 | 0.00 | 0.00 | 81 | 1017.0 |
| 20260906034532 | 13 | 294 | 12.9 | 29.0 | 0.00 | 0.00 | 0.00 | 82 | 1016.7 |
| 20260906034006 | 13 | 292 | 11.3 | 29.0 | 0.00 | 0.00 | 0.00 | 83 | 1016.7 |
| 20260906033506 | 14 | 319 | 9.7 | 20.9 | 0.00 | 0.00 | 0.00 | 82 | 1016.7 |
| 20260906033012 | 14 | 315 | 6.4 | 20.9 | 0.00 | 0.00 | 0.00 | 82 | 1016.7 |
| 20260906032510 | 13 | 274 | 8.0 | 19.3 | 0.00 | 0.00 | 0.00 | 83 | 1016.7 |
| 20260906032017 | 13 | 261 | 8.0 | 19.3 | 0.00 | 0.00 | 0.00 | 83 | 1016.6 |
| 20260906031534 | 13 | 302 | 8.0 | 22.5 | 0.00 | 0.00 | 0.00 | 83 | 1016.6 |
| 20260906031012 | 13 | 301 | 11.3 | 24.1 | 0.00 | 0.00 | 0.00 | 83 | 1016.6 |
| 20260906030514 | 13 | 294 | 12.9 | 24.1 | 0.00 | 0.00 | 0.00 | 83 | 1016.6 |
| 20260906030026 | 13 | 314 | 12.9 | 24.1 | 0.00 | 0.00 | 0.00 | 82 | 1016.4 |
| 20260906025519 | 13 | 310 | 12.9 | 24.1 | 0.00 | 0.00 | 0.00 | 82 | 1016.4 |
| 20260906025018 | 13 | 292 | 12.9 | 30.6 | 0.00 | 0.00 | 0.00 | 82 | 1016.3 |
| 20260906024508 | 13 | 268 | 14.5 | 30.6 | 0.00 | 0.00 | 0.00 | 82 | 1016.3 |
| 20260906024006 | 13 | 267 | 12.9 | 40.2 | 0.00 | 0.00 | 0.00 | 82 | 1016.3 |
| 20260906023509 | 13 | 348 | 11.3 | 40.2 | 0.00 | 0.00 | 0.00 | 82 | 1016.3 |
| 20260906023016 | 13 | 273 | 12.9 | 25.7 | 0.00 | 0.00 | 0.00 | 82 | 1016.1 |
| 20260906022515 | 13 | 309 | 14.5 | 30.6 | 0.00 | 0.00 | 0.00 | 82 | 1016.2 |
| 20260906022014 | 13 | 311 | 14.5 | 30.6 | 0.00 | 0.00 | 0.00 | 82 | 1016.1 |
| 20260906021527 | 13 | 263 | 16.1 | 29.0 | 0.00 | 0.00 | 0.00 | 82 | 1016.0 |
| 20260906021012 | 13 | 286 | 16.1 | 29.0 | 0.00 | 0.00 | 0.00 | 81 | 1016.0 |
| 20260906020514 | 13 | 295 | 16.1 | 27.4 | 0.00 | 0.00 | 0.00 | 81 | 1016.0 |
| 20260906020030 | 13 | 251 | 16.1 | 25.7 | 0.00 | 0.00 | 0.00 | 81 | 1015.9 |
| 20260906015515 | 13 | 261 | 16.1 | 38.6 | 0.00 | 0.00 | 0.00 | 81 | 1015.9 |
| 20260906015015 | 13 | 311 | 17.7 | 38.6 | 0.00 | 0.00 | 0.00 | 81 | 1015.8 |
| 20260906014511 | 13 | 269 | 11.3 | 30.6 | 0.00 | 0.00 | 0.00 | 81 | 1015.8 |
| 20260906014006 | 14 | 270 | 14.5 | 30.6 | 0.00 | 0.00 | 0.00 | 81 | 1015.7 |
| 20260906013510 | 14 | 269 | 16.1 | 27.4 | 0.00 | 0.00 | 0.00 | 81 | 1015.7 |
| 20260906013018 | 14 | 325 | 12.9 | 33.8 | 0.00 | 0.00 | 0.00 | 81 | 1015.7 |
| 20260906012512 | 14 | 304 | 17.7 | 33.8 | 0.00 | 0.00 | 0.00 | 81 | 1015.6 |
| 20260906012015 | 14 | 292 | 19.3 | 30.6 | 0.00 | 0.00 | 0.00 | 81 | 1015.5 |
| 20260906011524 | 14 | 280 | 12.9 | 27.4 | 0.00 | 0.00 | 0.00 | 81 | 1015.5 |
| 20260906011016 | 14 | 279 | 16.1 | 27.4 | 0.00 | 0.00 | 0.00 | 81 | 1015.4 |
| 20260906010514 | 14 | 285 | 12.9 | 29.0 | 0.00 | 0.00 | 0.00 | 81 | 1015.5 |
| 20260906010033 | 14 | 279 | 9.7 | 32.2 | 0.00 | 0.00 | 0.00 | 81 | 1015.4 |
| 20260906005516 | 14 | 269 | 17.7 | 35.4 | 0.00 | 0.00 | 0.00 | 81 | 1015.3 |
| 20260906005020 | 14 | 260 | 11.3 | 40.2 | 0.00 | 0.00 | 0.00 | 81 | 1015.2 |
| 20260906004524 | 14 | 292 | 12.9 | 40.2 | 0.00 | 0.00 | 0.00 | 81 | 1015.1 |
| 20260906004009 | 14 | 297 | 11.3 | 25.7 | 0.00 | 0.00 | 0.00 | 81 | 1015.0 |
| 20260906003512 | 14 | 289 | 9.7 | 25.7 | 0.00 | 0.00 | 0.00 | 81 | 1015.0 |
| 20260906003024 | 14 | 252 | 11.3 | 29.0 | 0.00 | 0.00 | 0.00 | 80 | 1014.9 |
| 20260906002511 | 14 | 344 | 11.3 | 29.0 | 0.00 | 0.03 | 0.00 | 81 | 1014.7 |
| 20260906002016 | 14 | 335 | 14.5 | 35.4 | 0.00 | 0.25 | 0.00 | 80 | 1014.7 |
| 20260906001538 | 14 | 338 | 11.3 | 35.4 | 0.00 | 0.25 | 0.00 | 80 | 1014.7 |
| 20260906001023 | 14 | 291 | 14.5 | 35.4 | 0.00 | 0.38 | 0.00 | 80 | 1014.7 |
| 20260906000514 | 14 | 289 | 17.7 | 35.4 | 0.00 | 0.38 | 0.00 | 80 | 1014.6 |
| 20260906000028 | 14 | 282 | 14.5 | 30.6 | 0.00 | 0.38 | 0.00 | 80 | 1014.5 |
| 20260905235516 | 14 | 291 | 14.5 | 30.6 | 0.00 | 0.38 | 0.00 | 80 | 1014.4 |
| 20260905235009 | 14 | 255 | 16.1 | 30.6 | 0.00 | 0.38 | 0.00 | 80 | 1014.4 |
| 20260905234514 | 14 | 284 | 16.1 | 29.0 | 0.00 | 0.38 | 0.00 | 80 | 1014.2 |
| 20260905234013 | 14 | 255 | 14.5 | 30.6 | 0.00 | 0.38 | 0.00 | 80 | 1014.2 |
| 20260905233514 | 14 | 259 | 9.7 | 32.2 | 0.00 | 0.38 | 0.00 | 80 | 1014.1 |
| 20260905233021 | 14 | 297 | 12.9 | 37.0 | 0.00 | 0.38 | 0.00 | 80 | 1014.0 |
| 20260905232514 | 14 | 284 | 19.3 | 37.0 | 0.00 | 0.38 | 0.00 | 80 | 1014.0 |
| 20260905232013 | 14 | 277 | 11.3 | 32.2 | 0.00 | 0.38 | 0.00 | 80 | 1013.9 |
| 20260905231534 | 14 | 298 | 14.5 | 32.2 | 0.00 | 0.38 | 0.00 | 80 | 1013.9 |
| 20260905231016 | 14 | 307 | 14.5 | 32.2 | 0.00 | 0.38 | 0.00 | 80 | 1013.8 |
| 20260905230516 | 14 | 296 | 16.1 | 32.2 | 0.00 | 0.38 | 0.00 | 79 | 1013.7 |
| 20260905230031 | 14 | 292 | 19.3 | 32.2 | 0.00 | 0.38 | 0.00 | 80 | 1013.6 |
| 20260905225519 | 14 | 216 | 11.3 | 30.6 | 0.00 | 0.38 | 0.00 | 79 | 1013.6 |
| 20260905225008 | 14 | 269 | 16.1 | 32.2 | 0.00 | 0.38 | 0.00 | 79 | 1013.5 |
| 20260905224522 | 14 | 263 | 19.3 | 45.1 | 0.00 | 0.38 | 0.00 | 79 | 1013.5 |
| 20260905224018 | 14 | 291 | 16.1 | 45.1 | 0.00 | 0.38 | 0.00 | 79 | 1013.4 |
| 20260905223513 | 14 | 290 | 16.1 | 37.0 | 0.00 | 0.38 | 0.00 | 79 | 1013.3 |
| 20260905223027 | 14 | 260 | 19.3 | 37.0 | 0.00 | 0.38 | 0.00 | 79 | 1013.3 |
| 20260905222516 | 14 | 338 | 16.1 | 38.6 | 0.00 | 0.38 | 0.00 | 79 | 1013.2 |
| 20260905222018 | 14 | 300 | 14.5 | 41.8 | 0.00 | 0.38 | 0.00 | 79 | 1013.2 |
| 20260905221530 | 14 | 242 | 19.3 | 41.8 | 0.00 | 0.38 | 0.00 | 79 | 1013.1 |
| 20260905221014 | 14 | 282 | 17.7 | 38.6 | 0.00 | 0.38 | 0.00 | 78 | 1013.1 |
| 20260905220518 | 14 | 268 | 17.7 | 38.6 | 0.00 | 0.38 | 0.00 | 78 | 1013.0 |
| 20260905220036 | 14 | 328 | 16.1 | 37.0 | 0.00 | 0.38 | 0.00 | 78 | 1013.0 |
| 20260905215512 | 14 | 246 | 12.9 | 37.0 | 0.00 | 0.38 | 0.38 | 78 | 1012.9 |
| 20260905215010 | 14 | 281 | 14.5 | 41.8 | 0.00 | 0.38 | 0.38 | 78 | 1012.9 |
| 20260905214523 | 14 | 294 | 22.5 | 41.8 | 0.00 | 0.38 | 0.38 | 79 | 1012.8 |
| 20260905214013 | 14 | 239 | 17.7 | 41.8 | 0.00 | 0.38 | 0.38 | 78 | 1012.8 |
| 20260905213513 | 14 | 295 | 20.9 | 41.8 | 0.00 | 0.38 | 0.38 | 79 | 1012.7 |
| 20260905213028 | 14 | 269 | 16.1 | 41.8 | 0.00 | 0.38 | 0.38 | 79 | 1012.6 |
| 20260905212515 | 14 | 319 | 14.5 | 45.1 | 0.00 | 0.38 | 0.38 | 79 | 1012.4 |
| 20260905212017 | 14 | 269 | 20.9 | 45.1 | 0.00 | 0.38 | 0.38 | 79 | 1012.4 |
| 20260905211529 | 14 | 293 | 17.7 | 32.2 | 0.00 | 0.38 | 0.38 | 79 | 1012.2 |
| 20260905211020 | 14 | 256 | 16.1 | 37.0 | 0.00 | 0.38 | 0.38 | 79 | 1012.1 |
| 20260905210518 | 14 | 234 | 19.3 | 40.2 | 0.00 | 0.38 | 0.38 | 78 | 1012.0 |
| 20260905210033 | 14 | 294 | 16.1 | 41.8 | 0.00 | 0.38 | 0.38 | 78 | 1011.9 |
| 20260905205512 | 14 | 297 | 17.7 | 41.8 | 0.00 | 0.38 | 0.38 | 78 | 1011.8 |
| 20260905205012 | 14 | 250 | 19.3 | 41.8 | 0.00 | 0.38 | 0.38 | 78 | 1011.6 |
| 20260905204525 | 14 | 265 | 20.9 | 41.8 | 0.00 | 0.38 | 0.38 | 78 | 1011.6 |
| 20260905204013 | 14 | 289 | 19.3 | 37.0 | 0.00 | 0.38 | 0.38 | 78 | 1011.6 |
| 20260905203515 | 14 | 281 | 17.7 | 35.4 | 0.00 | 0.38 | 0.38 | 78 | 1011.5 |
| 20260905203032 | 14 | 279 | 17.7 | 43.5 | 0.00 | 0.38 | 0.38 | 78 | 1011.5 |
| 20260905202519 | 14 | 271 | 19.3 | 43.5 | 0.00 | 0.38 | 0.38 | 78 | 1011.4 |
| 20260905202019 | 14 | 281 | 20.9 | 41.8 | 0.00 | 0.38 | 0.38 | 79 | 1011.4 |
| 20260905201531 | 14 | 263 | 25.7 | 41.8 | 0.00 | 0.38 | 0.38 | 79 | 1011.2 |
| 20260905201018 | 14 | 255 | 22.5 | 46.7 | 0.00 | 0.38 | 0.38 | 78 | 1011.2 |
| 20260905200526 | 14 | 279 | 19.3 | 46.7 | 0.00 | 0.38 | 0.38 | 77 | 1011.1 |
| 20260905200035 | 14 | 252 | 19.3 | 46.7 | 0.00 | 0.38 | 0.38 | 76 | 1011.2 |
| 20260905195515 | 14 | 314 | 22.5 | 46.7 | 0.00 | 0.38 | 0.38 | 76 | 1011.1 |
| 20260905195015 | 14 | 238 | 25.7 | 45.1 | 0.00 | 0.38 | 0.38 | 77 | 1011.0 |
| 20260905194525 | 14 | 259 | 30.6 | 43.5 | 0.00 | 0.38 | 0.38 | 77 | 1011.0 |
| 20260905194005 | 14 | 245 | 22.5 | 49.9 | 0.00 | 0.38 | 0.38 | 77 | 1010.9 |
| 20260905193504 | 14 | 311 | 29.0 | 49.9 | 0.00 | 0.38 | 0.38 | 77 | 1010.9 |
| 20260905193004 | 14 | 297 | 25.7 | 48.3 | 0.00 | 0.38 | 0.38 | 77 | 1010.9 |
| 20260905192508 | 14 | 271 | 24.1 | 51.5 | 0.00 | 0.41 | 0.38 | 77 | 1010.9 |
| 20260905192011 | 14 | 226 | 24.1 | 51.5 | 0.00 | 0.43 | 0.38 | 77 | 1010.7 |
| 20260905191514 | 14 | 282 | 20.9 | 46.7 | 0.00 | 0.46 | 0.38 | 78 | 1010.6 |
| 20260905191008 | 14 | 255 | 22.5 | 53.1 | 0.00 | 0.53 | 0.38 | 78 | 1010.4 |
| 20260905190513 | 14 | 280 | 27.4 | 53.1 | 0.00 | 0.61 | 0.38 | 78 | 1010.4 |
| 20260905190030 | 14 | 275 | 27.4 | 43.5 | 0.00 | 0.64 | 0.38 | 78 | 1010.4 |
| 20260905185515 | 14 | 262 | 20.9 | 43.5 | 0.00 | 0.74 | 0.38 | 78 | 1010.6 |
| 20260905185015 | 14 | 250 | 24.1 | 43.5 | 0.00 | 0.74 | 0.38 | 79 | 1010.4 |
| 20260905184506 | 14 | 265 | 22.5 | 43.5 | 0.00 | 0.74 | 0.38 | 79 | 1010.4 |
| 20260905184003 | 14 | 300 | 17.7 | 40.2 | 0.00 | 0.74 | 0.38 | 79 | 1010.3 |
| 20260905183503 | 14 | 240 | 17.7 | 53.1 | 0.00 | 0.74 | 0.38 | 79 | 1010.3 |
| 20260905183014 | 14 | 259 | 29.0 | 53.1 | 0.00 | 0.76 | 0.38 | 77 | 1010.2 |
| 20260905182510 | 14 | 278 | 22.5 | 35.4 | 0.00 | 0.76 | 0.38 | 77 | 1010.0 |
| 20260905182010 | 14 | 275 | 20.9 | 32.2 | 0.00 | 0.76 | 0.38 | 77 | 1009.9 |
| 20260905181515 | 14 | 253 | 16.1 | 41.8 | 0.00 | 0.76 | 0.38 | 75 | 1009.9 |
| 20260905181010 | 15 | 291 | 24.1 | 51.5 | 0.00 | 0.76 | 0.38 | 74 | 1009.8 |
| 20260905180513 | 15 | 313 | 20.9 | 51.5 | 0.00 | 0.76 | 0.38 | 74 | 1009.7 |
| 20260905180030 | 15 | 263 | 17.7 | 37.0 | 0.00 | 0.76 | 0.38 | 73 | 1009.5 |
| 20260905175516 | 15 | 255 | 24.1 | 37.0 | 0.00 | 0.76 | 0.38 | 72 | 1009.6 |
| 20260905175018 | 15 | 275 | 19.3 | 37.0 | 0.00 | 0.76 | 0.38 | 72 | 1009.5 |
| 20260905174507 | 15 | 292 | 24.1 | 38.6 | 0.00 | 0.76 | 0.38 | 71 | 1009.4 |
| 20260905174003 | 15 | 273 | 22.5 | 38.6 | 0.00 | 0.76 | 0.38 | 71 | 1009.3 |
| 20260905173507 | 15 | 294 | 20.9 | 38.6 | 0.00 | 0.76 | 0.38 | 71 | 1009.5 |
| 20260905173013 | 15 | 247 | 19.3 | 35.4 | 0.00 | 0.76 | 0.38 | 71 | 1009.3 |
| 20260905172506 | 15 | 290 | 14.5 | 35.4 | 0.00 | 0.76 | 0.38 | 72 | 1009.4 |
| 20260905172010 | 15 | 257 | 17.7 | 40.2 | 0.00 | 0.76 | 0.38 | 71 | 1009.4 |
| 20260905171522 | 15 | 262 | 20.9 | 37.0 | 0.00 | 0.76 | 0.38 | 71 | 1009.4 |
| 20260905171013 | 15 | 256 | 20.9 | 35.4 | 0.00 | 0.76 | 0.38 | 72 | 1009.4 |
| 20260905170515 | 15 | 272 | 17.7 | 38.6 | 0.00 | 0.76 | 0.38 | 71 | 1009.4 |
| 20260905170028 | 15 | 249 | 20.9 | 38.6 | 0.00 | 0.76 | 0.38 | 73 | 1009.4 |
| 20260905165516 | 15 | 254 | 11.3 | 33.8 | 0.00 | 0.76 | 0.38 | 75 | 1009.3 |
| 20260905165003 | 15 | 245 | 17.7 | 33.8 | 0.00 | 0.76 | 0.38 | 72 | 1009.2 |
| 20260905164507 | 15 | 254 | 16.1 | 38.6 | 0.00 | 0.76 | 0.38 | 72 | 1009.3 |
| 20260905164005 | 15 | 252 | 19.3 | 41.8 | 0.00 | 0.76 | 0.38 | 70 | 1009.2 |
| 20260905163510 | 16 | 325 | 25.7 | 41.8 | 0.00 | 0.76 | 0.38 | 70 | 1009.1 |
| 20260905163012 | 16 | 286 | 24.1 | 41.8 | 0.00 | 0.76 | 0.38 | 71 | 1008.9 |
| 20260905162510 | 16 | 256 | 17.7 | 33.8 | 0.00 | 0.76 | 0.38 | 71 | 1009.0 |
| 20260905162013 | 16 | 267 | 20.9 | 43.5 | 0.00 | 0.76 | 0.38 | 70 | 1009.1 |
| 20260905161524 | 16 | 244 | 24.1 | 43.5 | 0.00 | 0.76 | 0.38 | 70 | 1008.9 |
| 20260905161011 | 16 | 222 | 20.9 | 40.2 | 0.00 | 0.76 | 0.38 | 71 | 1009.0 |
| 20260905160515 | 16 | 224 | 17.7 | 29.0 | 0.00 | 0.76 | 0.38 | 72 | 1008.9 |
| 20260905160044 | 16 | 261 | 17.7 | 40.2 | 0.00 | 0.76 | 0.38 | 73 | 1008.9 |
| 20260905155514 | 16 | 259 | 20.9 | 41.8 | 0.00 | 0.76 | 0.38 | 72 | 1008.8 |
| 20260905155002 | 16 | 285 | 22.5 | 41.8 | 0.00 | 0.76 | 0.38 | 73 | 1008.8 |
| 20260905154508 | 16 | 270 | 16.1 | 45.1 | 0.00 | 0.76 | 0.38 | 70 | 1008.8 |
| 20260905154006 | 16 | 312 | 19.3 | 45.1 | 0.00 | 0.76 | 0.38 | 71 | 1008.7 |
| 20260905153510 | 16 | 275 | 27.4 | 43.5 | 0.00 | 0.76 | 0.38 | 68 | 1008.7 |
| 20260905153016 | 17 | 279 | 22.5 | 49.9 | 0.00 | 0.76 | 0.38 | 68 | 1008.6 |
| 20260905152511 | 17 | 290 | 29.0 | 49.9 | 0.00 | 0.76 | 0.38 | 66 | 1008.6 |
| 20260905152016 | 17 | 269 | 27.4 | 49.9 | 0.00 | 0.76 | 0.38 | 66 | 1008.6 |
| 20260905151529 | 17 | 248 | 24.1 | 40.2 | 0.00 | 0.76 | 0.38 | 66 | 1008.5 |
| 20260905151016 | 17 | 246 | 24.1 | 43.5 | 0.00 | 0.76 | 0.38 | 68 | 1008.3 |
| 20260905150517 | 17 | 258 | 22.5 | 49.9 | 0.00 | 0.76 | 0.38 | 68 | 1008.5 |
| 20260905150028 | 17 | 255 | 25.7 | 49.9 | 0.00 | 0.76 | 0.38 | 68 | 1008.3 |
| 20260905145519 | 17 | 281 | 24.1 | 46.7 | 0.00 | 0.76 | 0.38 | 68 | 1008.3 |
| 20260905145007 | 17 | 254 | 22.5 | 41.8 | 0.00 | 0.76 | 0.38 | 68 | 1008.3 |
| 20260905144514 | 17 | 247 | 19.3 | 41.8 | 0.00 | 0.76 | 0.38 | 66 | 1008.3 |
| 20260905144013 | 17 | 276 | 14.5 | 41.8 | 0.00 | 0.76 | 0.38 | 67 | 1008.3 |
| 20260905143508 | 17 | 298 | 22.5 | 45.1 | 0.00 | 0.76 | 0.38 | 66 | 1008.2 |
| 20260905143018 | 17 | 319 | 19.3 | 45.1 | 0.00 | 0.76 | 0.38 | 67 | 1008.1 |
| 20260905142517 | 17 | 263 | 20.9 | 37.0 | 0.00 | 0.76 | 0.38 | 67 | 1008.2 |
| 20260905142014 | 18 | 257 | 17.7 | 41.8 | 0.00 | 0.76 | 0.38 | 67 | 1008.2 |
| 20260905141526 | 18 | 272 | 17.7 | 41.8 | 0.00 | 0.79 | 0.38 | 67 | 1008.2 |
| 20260905141016 | 17 | 245 | 12.9 | 35.4 | 0.00 | 0.79 | 0.38 | 71 | 1008.1 |
| 20260905140519 | 17 | 236 | 22.5 | 37.0 | 0.00 | 0.79 | 0.38 | 69 | 1008.1 |
| 20260905140032 | 17 | 270 | 20.9 | 45.1 | 0.00 | 0.81 | 0.38 | 71 | 1008.0 |
| 20260905135506 | 18 | 247 | 22.5 | 45.1 | 0.00 | 0.84 | 0.38 | 71 | 1008.1 |
| 20260905135009 | 18 | 244 | 20.9 | 33.8 | 0.00 | 0.84 | 0.38 | 71 | 1008.1 |
| 20260905134513 | 17 | 281 | 17.7 | 37.0 | 0.00 | 0.84 | 0.38 | 72 | 1008.0 |
| 20260905134011 | 17 | 268 | 24.1 | 37.0 | 0.00 | 0.84 | 0.38 | 73 | 1008.0 |
| 20260905133512 | 16 | 246 | 19.3 | 41.8 | 0.00 | 0.86 | 0.38 | 73 | 1008.1 |
| 20260905133026 | 16 | 263 | 19.3 | 41.8 | 0.00 | 1.09 | 0.38 | 73 | 1008.0 |
| 20260905132514 | 17 | 278 | 24.1 | 37.0 | 0.00 | 1.17 | 0.38 | 72 | 1008.0 |
| 20260905132016 | 17 | 305 | 20.9 | 38.6 | 0.00 | 1.22 | 0.38 | 70 | 1008.0 |
| 20260905131529 | 17 | 208 | 24.1 | 41.8 | 0.00 | 1.27 | 0.38 | 72 | 1008.0 |
| 20260905131016 | 17 | 285 | 20.9 | 41.8 | 0.00 | 1.35 | 0.38 | 72 | 1007.9 |
| 20260905130516 | 16 | 279 | 22.5 | 41.8 | 0.00 | 1.60 | 0.38 | 73 | 1008.0 |
| 20260905130030 | 17 | 252 | 14.5 | 40.2 | 0.00 | 1.80 | 0.38 | 72 | 1008.0 |
| 20260905125508 | 17 | 279 | 12.9 | 40.2 | 0.00 | 1.96 | 0.38 | 73 | 1007.8 |
| 20260905125008 | 17 | 248 | 22.5 | 38.6 | 0.00 | 2.03 | 0.38 | 71 | 1007.7 |
| 20260905124518 | 17 | 221 | 22.5 | 41.8 | 0.00 | 2.11 | 0.38 | 71 | 1007.7 |
| 20260905124009 | 17 | 286 | 17.7 | 41.8 | 0.00 | 2.16 | 0.38 | 72 | 1007.7 |
| 20260905123513 | 17 | 269 | 16.1 | 32.2 | 0.00 | 2.16 | 0.38 | 72 | 1007.6 |
| 20260905123024 | 17 | 257 | 19.3 | 37.0 | 0.00 | 2.16 | 0.38 | 71 | 1007.5 |
| 20260905122513 | 18 | 244 | 20.9 | 37.0 | 0.00 | 2.18 | 0.38 | 69 | 1007.5 |
| 20260905122020 | 17 | 268 | 14.5 | 37.0 | 0.00 | 2.24 | 0.38 | 72 | 1007.5 |
| 20260905121528 | 18 | 250 | 20.9 | 37.0 | 0.00 | 2.24 | 0.38 | 72 | 1007.4 |
| 20260905121019 | 17 | 256 | 19.3 | 46.7 | 0.00 | 2.29 | 0.38 | 70 | 1007.4 |
| 20260905120518 | 18 | 249 | 19.3 | 48.3 | 0.00 | 2.31 | 0.38 | 71 | 1007.3 |
| 20260905120023 | 18 | 253 | 29.0 | 48.3 | 0.00 | 2.34 | 0.38 | 69 | 1007.3 |
| 20260905115508 | 18 | 259 | 27.4 | 43.5 | 0.00 | 2.34 | 0.38 | 70 | 1007.3 |
| 20260905115012 | 17 | 246 | 29.0 | 43.5 | 0.00 | 2.34 | 0.38 | 71 | 1007.2 |
| 20260905114518 | 17 | 260 | 24.1 | 45.1 | 0.00 | 2.36 | 0.38 | 70 | 1007.3 |
| 20260905114011 | 17 | 259 | 29.0 | 45.1 | 0.00 | 2.39 | 0.38 | 71 | 1007.2 |
| 20260905113516 | 17 | 261 | 22.5 | 41.8 | 0.00 | 2.41 | 0.38 | 71 | 1007.2 |
| 20260905113028 | 17 | 296 | 24.1 | 43.5 | 0.00 | 2.41 | 0.38 | 71 | 1007.1 |
| 20260905112516 | 17 | 227 | 24.1 | 43.5 | 0.00 | 2.44 | 0.38 | 69 | 1007.1 |
| 20260905112016 | 17 | 252 | 11.3 | 32.2 | 0.00 | 2.44 | 0.38 | 72 | 1007.1 |
| 20260905111558 | 17 | 255 | 16.1 | 32.2 | 0.00 | 2.44 | 0.38 | 72 | 1007.0 |
| 20260905111014 | 18 | 221 | 17.7 | 32.2 | 0.00 | 2.46 | 0.38 | 71 | 1007.1 |
| 20260905110521 | 17 | 213 | 14.5 | 32.2 | 0.00 | 2.46 | 0.38 | 71 | 1007.0 |
| 20260905110019 | 17 | 274 | 12.9 | 41.8 | 0.00 | 2.46 | 0.38 | 71 | 1007.0 |
| 20260905105510 | 17 | 268 | 22.5 | 40.2 | 0.00 | 2.49 | 0.38 | 72 | 1007.0 |
| 20260905105011 | 17 | 223 | 16.1 | 41.8 | 0.00 | 2.51 | 0.38 | 71 | 1006.9 |
| 20260905104523 | 18 | 291 | 24.1 | 38.6 | 0.00 | 2.51 | 0.38 | 69 | 1007.0 |
| 20260905104015 | 17 | 246 | 20.9 | 35.4 | 0.00 | 2.54 | 0.38 | 70 | 1006.9 |
| 20260905103518 | 17 | 247 | 19.3 | 35.4 | 0.00 | 2.54 | 0.38 | 70 | 1006.8 |
| 20260905103031 | 17 | 253 | 16.1 | 32.2 | 0.00 | 2.54 | 0.38 | 73 | 1006.6 |
| 20260905102517 | 17 | 295 | 20.9 | 35.4 | 0.00 | 2.54 | 0.38 | 69 | 1006.6 |
| 20260905102015 | 17 | 265 | 17.7 | 35.4 | 0.00 | 2.54 | 0.38 | 71 | 1006.5 |
| 20260905101508 | 17 | 238 | 19.3 | 41.8 | 0.00 | 2.54 | 0.38 | 73 | 1006.6 |
| 20260905101006 | 17 | 292 | 24.1 | 48.3 | 0.00 | 2.54 | 0.38 | 71 | 1006.4 |
| 20260905100506 | 17 | 244 | 19.3 | 48.3 | 0.00 | 2.54 | 0.38 | 72 | 1006.5 |
| 20260905100010 | 17 | 269 | 24.1 | 45.1 | 0.00 | 2.54 | 0.38 | 69 | 1006.5 |
| 20260905095508 | 17 | 262 | 24.1 | 45.1 | 0.00 | 2.54 | 0.38 | 70 | 1006.5 |
| 20260905095012 | 17 | 244 | 19.3 | 37.0 | 0.00 | 2.57 | 0.38 | 73 | 1006.5 |
| 20260905094504 | 17 | 267 | 24.1 | 37.0 | 0.00 | 2.57 | 0.38 | 71 | 1006.4 |
| 20260905094005 | 17 | 250 | 19.3 | 33.8 | 0.00 | 2.59 | 0.38 | 73 | 1006.2 |
| 20260905093504 | 17 | 223 | 12.9 | 48.3 | 0.00 | 2.59 | 0.38 | 76 | 1006.2 |
| 20260905093004 | 17 | 269 | 16.1 | 48.3 | 0.00 | 2.62 | 0.38 | 73 | 1006.2 |
| 20260905092507 | 17 | 192 | 22.5 | 46.7 | 0.00 | 2.62 | 0.38 | 71 | 1006.1 |
| 20260905092006 | 17 | 244 | 24.1 | 46.7 | 0.00 | 2.62 | 0.38 | 73 | 1006.1 |
| 20260905091510 | 17 | 251 | 25.7 | 40.2 | 0.00 | 2.62 | 0.38 | 72 | 1006.2 |
| 20260905091008 | 17 | 239 | 19.3 | 35.4 | 0.00 | 2.62 | 0.38 | 72 | 1006.1 |
| 20260905090508 | 17 | 254 | 22.5 | 40.2 | 0.00 | 2.62 | 0.38 | 74 | 1006.1 |
| 20260905090010 | 16 | 288 | 22.5 | 40.2 | 0.00 | 2.62 | 0.38 | 74 | 1006.1 |
| 20260905085508 | 16 | 234 | 19.3 | 37.0 | 0.00 | 2.62 | 0.38 | 75 | 1006.1 |
| 20260905085004 | 16 | 248 | 24.1 | 38.6 | 0.00 | 2.62 | 0.38 | 76 | 1006.0 |
| 20260905084504 | 16 | 250 | 25.7 | 40.2 | 0.00 | 2.62 | 0.38 | 75 | 1006.0 |
| 20260905084003 | 16 | 240 | 22.5 | 40.2 | 0.00 | 2.62 | 0.38 | 75 | 1006.0 |